User: anonymous   Login
Location: Unspecified
(0.0000°N, 0.0000°E)
Time: 00:27:16
(UTC+00:00)
Language:

PROBA 2 - Orbit

View from above orbital plane
View from above orbital plane
View from above satellite
View from above satellite

Ground track
Ground track

The orbit data is extracted from the following two-line orbital elements,

1 36037U 09059B   16240.09627352  .00000001  00000-0  11129-4 0  9998
2 36037  98.2623  72.0404 0013794 156.8233 203.3588 14.52960564361427
Epoch (UTC): 27 August 2016 02:18:38
Eccentricity: 0.0013794
inclination: 98.2623°
perigee height: 706 km
apogee height: 726 km
right ascension of ascending node: 72.0404°
argument of perigee: 156.8233°
revolutions per day: 14.52960564
mean anomaly at epoch: 203.3588°
orbit number at epoch: 36142

The dashed part of the orbit path shows where the satellite is in the earth's shadow,  

DLR